Time,TemperatureF,DewpointF,PressureIn,WindDirection,WindDirectionDegrees,WindSpeedMPH,WindSpeedGustMPH,Humidity,HourlyPrecipIn,Conditions,Clouds,dailyrainin,SoftwareType,DateUTC
2013-07-22 00:02:00,53.5,37.8,29.80,NNW,332,0.0,0.0,55,0.00,,---,0.00,VWS V14.01,2013-07-22 06:02:00,
2013-07-22 00:07:00,53.4,38.1,29.80,NNW,332,0.0,0.0,56,0.00,,---,0.00,VWS V14.01,2013-07-22 06:07:00,
2013-07-22 00:12:00,53.0,38.6,29.80,NNW,332,1.0,3.0,58,0.00,,---,0.00,VWS V14.01,2013-07-22 06:12:00,
2013-07-22 00:17:00,51.7,38.7,29.81,NNW,332,8.0,8.0,61,0.00,,---,0.00,VWS V14.01,2013-07-22 06:17:00,
2013-07-22 00:22:00,50.4,38.7,29.81,NNW,332,8.0,8.0,64,0.00,,---,0.00,VWS V14.01,2013-07-22 06:22:00,
2013-07-22 00:27:00,49.7,37.6,29.81,NNW,332,0.0,0.0,63,0.00,,---,0.00,VWS V14.01,2013-07-22 06:27:00,
2013-07-22 00:32:00,49.7,38.0,29.81,NNW,332,1.0,2.0,64,0.00,,---,0.00,VWS V14.01,2013-07-22 06:32:00,
2013-07-22 00:37:00,49.8,38.1,29.81,NNW,332,0.0,0.0,64,0.00,,---,0.00,VWS V14.01,2013-07-22 06:37:00,
2013-07-22 00:42:00,49.9,38.2,29.81,NNW,332,6.0,6.0,64,0.00,,---,0.00,VWS V14.01,2013-07-22 06:42:00,
2013-07-22 00:47:00,49.7,38.4,29.81,NNW,332,3.0,4.0,65,0.00,,---,0.00,VWS V14.01,2013-07-22 06:47:00,
2013-07-22 00:52:00,49.1,38.6,29.80,NNW,332,1.0,3.0,67,0.00,,---,0.00,VWS V14.01,2013-07-22 06:52:00,
2013-07-22 00:57:00,48.8,38.0,29.80,NNW,332,0.0,0.0,66,0.00,,---,0.00,VWS V14.01,2013-07-22 06:57:00,
2013-07-22 01:02:00,48.7,38.6,29.80,NNW,332,0.0,1.0,68,0.00,,---,0.00,VWS V14.01,2013-07-22 07:02:00,
2013-07-22 01:07:00,48.8,38.7,29.80,NNW,332,4.0,4.0,68,0.00,,---,0.00,VWS V14.01,2013-07-22 07:07:00,
2013-07-22 01:12:00,49.2,39.1,29.80,NNW,332,4.0,4.0,68,0.00,,---,0.00,VWS V14.01,2013-07-22 07:12:00,
2013-07-22 01:17:00,48.7,38.6,29.80,NNW,332,3.0,4.0,68,0.00,,---,0.00,VWS V14.01,2013-07-22 07:17:00,
2013-07-22 01:22:00,48.5,38.1,29.80,NNW,332,0.0,0.0,67,0.00,,---,0.00,VWS V14.01,2013-07-22 07:22:00,
2013-07-22 01:27:00,48.2,38.2,29.80,NNW,332,5.0,5.0,68,0.00,,---,0.00,VWS V14.01,2013-07-22 07:27:00,
2013-07-22 01:33:00,47.5,38.2,29.80,NNW,332,5.0,6.0,70,0.00,,---,0.00,VWS V14.01,2013-07-22 07:33:00,
2013-07-22 01:38:00,47.0,37.7,29.81,NNW,332,6.0,6.0,70,0.00,,---,0.00,VWS V14.01,2013-07-22 07:38:00,
2013-07-22 01:43:00,46.9,37.6,29.80,NNW,332,4.0,4.0,70,0.00,,---,0.00,VWS V14.01,2013-07-22 07:43:00,
2013-07-22 01:48:00,46.8,37.9,29.81,NNW,332,7.0,7.0,71,0.00,,---,0.00,VWS V14.01,2013-07-22 07:48:00,
2013-07-22 01:53:00,46.7,37.8,29.81,NNW,332,0.0,2.0,71,0.00,,---,0.00,VWS V14.01,2013-07-22 07:53:00,
2013-07-22 01:58:00,46.7,38.2,29.81,NNW,332,0.0,0.0,72,0.00,,---,0.00,VWS V14.01,2013-07-22 07:58:00,
2013-07-22 02:03:00,47.0,37.7,29.81,NNW,332,0.0,0.0,70,0.00,,---,0.00,VWS V14.01,2013-07-22 08:03:00,
2013-07-22 02:08:00,47.3,38.0,29.81,NNW,332,0.0,0.0,70,0.00,,---,0.00,VWS V14.01,2013-07-22 08:08:00,
2013-07-22 02:13:00,47.4,37.8,29.81,NNW,332,0.0,0.0,69,0.00,,---,0.00,VWS V14.01,2013-07-22 08:13:00,
2013-07-22 02:18:00,47.3,37.7,29.81,NNW,332,0.0,0.0,69,0.00,,---,0.00,VWS V14.01,2013-07-22 08:18:00,
2013-07-22 02:23:00,47.3,38.0,29.81,NNW,332,0.0,0.0,70,0.00,,---,0.00,VWS V14.01,2013-07-22 08:23:00,
2013-07-22 02:28:00,47.0,37.7,29.81,NNW,332,2.0,4.0,70,0.00,,---,0.00,VWS V14.01,2013-07-22 08:28:00,
2013-07-22 02:33:00,46.9,37.6,29.81,NNW,332,3.0,7.0,70,0.00,,---,0.00,VWS V14.01,2013-07-22 08:33:00,
2013-07-22 02:38:00,46.7,37.5,29.81,NNW,332,4.0,6.0,70,0.00,,---,0.00,VWS V14.01,2013-07-22 08:38:00,
2013-07-22 02:43:00,46.4,37.5,29.82,NNW,332,0.0,0.0,71,0.00,,---,0.00,VWS V14.01,2013-07-22 08:43:00,
2013-07-22 02:48:00,46.1,37.6,29.82,NNW,332,1.0,3.0,72,0.00,,---,0.00,VWS V14.01,2013-07-22 08:48:00,
2013-07-22 02:53:00,45.8,37.7,29.82,NNW,332,0.0,0.0,73,0.00,,---,0.00,VWS V14.01,2013-07-22 08:53:00,
2013-07-22 02:58:00,45.6,37.5,29.82,NNW,332,0.0,1.0,73,0.00,,---,0.00,VWS V14.01,2013-07-22 08:58:00,
2013-07-22 03:03:00,45.3,37.9,29.82,NNW,332,5.0,5.0,75,0.00,,---,0.00,VWS V14.01,2013-07-22 09:03:00,
2013-07-22 03:08:00,45.1,37.3,29.83,NNW,332,1.0,1.0,74,0.00,,---,0.00,VWS V14.01,2013-07-22 09:08:00,
2013-07-22 03:13:00,45.0,37.6,29.83,NNW,332,5.0,8.0,75,0.00,,---,0.00,VWS V14.01,2013-07-22 09:13:00,
2013-07-22 03:18:00,44.7,37.3,29.83,NNW,332,4.0,6.0,75,0.00,,---,0.00,VWS V14.01,2013-07-22 09:18:00,
2013-07-22 03:23:00,44.5,37.4,29.83,NNW,332,5.0,5.0,76,0.00,,---,0.00,VWS V14.01,2013-07-22 09:23:00,
2013-07-22 03:28:00,44.4,37.7,29.83,NNW,332,0.0,1.0,77,0.00,,---,0.00,VWS V14.01,2013-07-22 09:28:00,
2013-07-22 03:33:00,44.4,37.3,29.83,NNW,332,3.0,6.0,76,0.00,,---,0.00,VWS V14.01,2013-07-22 09:33:00,
2013-07-22 03:38:00,44.6,36.8,29.84,NNW,332,0.0,0.0,74,0.00,,---,0.00,VWS V14.01,2013-07-22 09:38:00,
2013-07-22 03:43:00,45.0,37.2,29.84,NNW,332,0.0,0.0,74,0.00,,---,0.00,VWS V14.01,2013-07-22 09:43:00,
2013-07-22 03:48:00,45.1,37.3,29.84,NNW,332,0.0,0.0,74,0.00,,---,0.00,VWS V14.01,2013-07-22 09:48:00,
2013-07-22 03:53:00,45.1,37.0,29.84,NNW,332,3.0,3.0,73,0.00,,---,0.00,VWS V14.01,2013-07-22 09:53:00,
2013-07-22 03:58:00,44.9,36.8,29.84,NNW,332,3.0,4.0,73,0.00,,---,0.00,VWS V14.01,2013-07-22 09:58:00,
2013-07-22 04:03:00,44.4,37.0,29.84,NNW,332,6.0,6.0,75,0.00,,---,0.00,VWS V14.01,2013-07-22 10:03:00,
2013-07-22 04:08:00,43.9,36.8,29.84,NNW,332,6.0,7.0,76,0.00,,---,0.00,VWS V14.01,2013-07-22 10:08:00,
2013-07-22 04:13:00,43.9,36.8,29.84,NNW,332,0.0,0.0,76,0.00,,---,0.00,VWS V14.01,2013-07-22 10:13:00,
2013-07-22 04:18:00,44.0,36.9,29.84,NNW,332,0.0,0.0,76,0.00,,---,0.00,VWS V14.01,2013-07-22 10:18:00,
2013-07-22 04:23:00,43.8,37.7,29.84,NNW,332,0.0,0.0,79,0.00,,---,0.00,VWS V14.01,2013-07-22 10:23:00,
2013-07-22 04:24:00,43.8,37.7,29.84,NNW,332,0.0,0.0,79,0.00,,---,0.00,VWS V14.01,2013-07-22 10:24:00,
2013-07-22 04:29:00,43.3,37.9,29.84,NNW,332,3.0,3.0,81,0.00,,---,0.00,VWS V14.01,2013-07-22 10:29:00,
2013-07-22 04:34:00,43.1,37.0,29.84,NNW,332,5.0,5.0,79,0.00,,---,0.00,VWS V14.01,2013-07-22 10:34:00,
2013-07-22 04:39:00,43.2,36.8,29.84,NNW,332,2.0,4.0,78,0.00,,---,0.00,VWS V14.01,2013-07-22 10:39:00,
2013-07-22 04:44:00,43.3,36.6,29.84,NNW,332,0.0,0.0,77,0.00,,---,0.00,VWS V14.01,2013-07-22 10:44:00,
2013-07-22 04:49:00,43.4,37.0,29.84,NNW,332,0.0,0.0,78,0.00,,---,0.00,VWS V14.01,2013-07-22 10:49:00,
2013-07-22 04:54:00,43.4,36.7,29.84,NNW,332,1.0,1.0,77,0.00,,---,0.00,VWS V14.01,2013-07-22 10:54:00,
2013-07-22 04:59:00,43.6,36.9,29.84,NNW,332,0.0,0.0,77,0.00,,---,0.00,VWS V14.01,2013-07-22 10:59:00,
2013-07-22 05:04:00,43.5,37.1,29.84,NNW,332,0.0,0.0,78,0.00,,---,0.00,VWS V14.01,2013-07-22 11:04:00,
2013-07-22 05:09:00,43.5,36.8,29.84,NNW,332,0.0,1.0,77,0.00,,---,0.00,VWS V14.01,2013-07-22 11:09:00,
2013-07-22 05:14:00,43.6,36.9,29.84,NNW,332,1.0,1.0,77,0.00,,---,0.00,VWS V14.01,2013-07-22 11:14:00,
2013-07-22 05:19:00,43.6,36.9,29.84,NNW,332,0.0,0.0,77,0.00,,---,0.00,VWS V14.01,2013-07-22 11:19:00,
2013-07-22 05:24:00,43.1,36.7,29.84,NNW,332,5.0,5.0,78,0.00,,---,0.00,VWS V14.01,2013-07-22 11:24:00,
2013-07-22 05:29:00,42.5,36.1,29.84,NNW,332,3.0,7.0,78,0.00,,---,0.00,VWS V14.01,2013-07-22 11:29:00,
2013-07-22 05:34:00,42.4,36.4,29.85,NNW,332,0.0,0.0,79,0.00,,---,0.00,VWS V14.01,2013-07-22 11:34:00,
2013-07-22 05:39:00,42.4,36.4,29.85,NNW,332,0.0,1.0,79,0.00,,---,0.00,VWS V14.01,2013-07-22 11:39:00,
2013-07-22 05:44:00,42.4,36.4,29.85,NNW,332,0.0,0.0,79,0.00,,---,0.00,VWS V14.01,2013-07-22 11:44:00,
2013-07-22 05:49:00,42.3,36.3,29.85,NNW,332,0.0,0.0,79,0.00,,---,0.00,VWS V14.01,2013-07-22 11:49:00,
2013-07-22 05:54:00,42.4,36.4,29.85,NNW,336,0.0,0.0,79,0.00,,---,0.00,VWS V14.01,2013-07-22 11:54:00,
2013-07-22 05:59:00,42.4,36.4,29.85,NNW,336,0.0,1.0,79,0.00,,---,0.00,VWS V14.01,2013-07-22 11:59:00,
2013-07-22 06:04:00,42.3,36.3,29.86,NNW,336,4.0,6.0,79,0.00,,---,0.00,VWS V14.01,2013-07-22 12:04:00,
2013-07-22 06:09:00,42.5,36.5,29.86,NNW,336,3.0,3.0,79,0.00,,---,0.00,VWS V14.01,2013-07-22 12:09:00,
2013-07-22 06:14:00,42.7,36.7,29.85,NNW,336,3.0,3.0,79,0.00,,---,0.00,VWS V14.01,2013-07-22 12:14:00,
2013-07-22 06:19:00,42.9,36.8,29.85,NNW,336,0.0,0.0,79,0.00,,---,0.00,VWS V14.01,2013-07-22 12:19:00,
2013-07-22 06:24:00,42.8,36.8,29.86,NNW,336,0.0,3.0,79,0.00,,---,0.00,VWS V14.01,2013-07-22 12:24:00,
2013-07-22 06:29:00,42.9,36.8,29.85,NNW,336,3.0,4.0,79,0.00,,---,0.00,VWS V14.01,2013-07-22 12:29:00,
2013-07-22 06:34:00,42.9,36.8,29.85,NNW,336,0.0,1.0,79,0.00,,---,0.00,VWS V14.01,2013-07-22 12:34:00,
2013-07-22 06:39:00,42.8,36.8,29.85,NNW,336,3.0,4.0,79,0.00,,---,0.00,VWS V14.01,2013-07-22 12:39:00,
2013-07-22 06:44:00,42.0,36.6,29.86,NNW,336,0.0,0.0,81,0.00,,---,0.00,VWS V14.01,2013-07-22 12:44:00,
2013-07-22 06:49:00,41.6,36.2,29.86,NNW,336,2.0,3.0,81,0.00,,---,0.00,VWS V14.01,2013-07-22 12:49:00,
2013-07-22 06:54:00,41.5,36.7,29.86,NNW,336,0.0,3.0,83,0.00,,---,0.00,VWS V14.01,2013-07-22 12:54:00,
2013-07-22 06:59:00,41.5,37.0,29.86,NNW,336,0.0,0.0,84,0.00,,---,0.00,VWS V14.01,2013-07-22 12:59:00,
2013-07-22 07:04:00,41.6,37.1,29.86,NNW,336,0.0,0.0,84,0.00,,---,0.00,VWS V14.01,2013-07-22 13:04:00,
2013-07-22 07:09:00,41.6,37.1,29.86,NNW,336,0.0,0.0,84,0.00,,---,0.00,VWS V14.01,2013-07-22 13:09:00,
2013-07-22 07:14:00,41.7,37.2,29.86,NNW,336,0.0,0.0,84,0.00,,---,0.00,VWS V14.01,2013-07-22 13:14:00,
2013-07-22 07:19:00,41.8,37.3,29.86,NNW,336,0.0,0.0,84,0.00,,---,0.00,VWS V14.01,2013-07-22 13:19:00,
2013-07-22 07:24:00,41.8,37.3,29.86,NNW,336,0.0,0.0,84,0.00,,---,0.00,VWS V14.01,2013-07-22 13:24:00,
2013-07-22 07:29:00,41.9,37.4,29.86,NNW,336,3.0,3.0,84,0.00,,---,0.00,VWS V14.01,2013-07-22 13:29:00,
2013-07-22 07:34:00,42.3,38.1,29.86,NNW,336,3.0,5.0,85,0.00,,---,0.00,VWS V14.01,2013-07-22 13:34:00,
2013-07-22 07:39:00,42.4,38.2,29.86,NNW,336,2.0,3.0,85,0.00,,---,0.00,VWS V14.01,2013-07-22 13:39:00,
2013-07-22 07:44:00,42.4,38.2,29.86,NNW,336,0.0,0.0,85,0.00,,---,0.00,VWS V14.01,2013-07-22 13:44:00,
2013-07-22 07:49:00,42.5,38.0,29.87,NNW,336,0.0,0.0,84,0.00,,---,0.00,VWS V14.01,2013-07-22 13:49:00,
2013-07-22 07:54:00,42.8,38.6,29.87,NNW,336,0.0,0.0,85,0.00,,---,0.00,VWS V14.01,2013-07-22 13:54:00,
2013-07-22 07:59:00,43.1,38.3,29.87,NNW,336,0.0,0.0,83,0.00,,---,0.00,VWS V14.01,2013-07-22 13:59:00,
2013-07-22 08:04:00,43.5,38.7,29.87,NNW,336,0.0,0.0,83,0.00,,---,0.00,VWS V14.01,2013-07-22 14:04:00,
2013-07-22 08:09:00,43.8,38.4,29.87,NNW,336,0.0,0.0,81,0.00,,---,0.00,VWS V14.01,2013-07-22 14:09:00,
2013-07-22 08:14:00,45.0,39.8,29.87,NNW,336,0.0,0.0,82,0.00,,---,0.00,VWS V14.01,2013-07-22 14:14:00,
2013-07-22 08:19:00,46.5,40.3,29.87,NNW,336,0.0,0.0,79,0.00,,---,0.00,VWS V14.01,2013-07-22 14:19:00,
2013-07-22 08:24:00,48.2,41.3,29.87,NNW,336,0.0,0.0,77,0.00,,---,0.00,VWS V14.01,2013-07-22 14:24:00,
2013-07-22 08:29:00,50.1,41.8,29.87,NNW,336,0.0,0.0,73,0.00,,---,0.00,VWS V14.01,2013-07-22 14:29:00,
2013-07-22 08:34:00,51.5,40.5,29.87,NNW,336,0.0,0.0,66,0.00,,---,0.00,VWS V14.01,2013-07-22 14:34:00,
2013-07-22 08:39:00,52.7,40.1,29.87,NNW,336,0.0,0.0,62,0.00,,---,0.00,VWS V14.01,2013-07-22 14:39:00,
2013-07-22 08:44:00,53.8,41.1,29.87,NNW,336,0.0,1.0,62,0.00,,---,0.00,VWS V14.01,2013-07-22 14:44:00,
2013-07-22 08:49:00,54.8,42.9,29.87,NNW,336,0.0,0.0,64,0.00,,---,0.00,VWS V14.01,2013-07-22 14:49:00,
2013-07-22 08:54:00,56.0,42.3,29.87,NNW,336,0.0,1.0,60,0.00,,---,0.00,VWS V14.01,2013-07-22 14:54:00,
2013-07-22 08:59:00,57.3,43.5,29.87,NNW,336,0.0,0.0,60,0.00,,---,0.00,VWS V14.01,2013-07-22 14:59:00,
2013-07-22 09:04:00,58.7,43.5,29.87,NNW,336,0.0,0.0,57,0.00,,---,0.00,VWS V14.01,2013-07-22 15:04:00,
2013-07-22 09:09:00,59.1,42.5,29.86,NNW,336,0.0,1.0,54,0.00,,---,0.00,VWS V14.01,2013-07-22 15:09:00,
2013-07-22 09:14:00,59.7,43.5,29.86,NNW,336,0.0,0.0,55,0.00,,---,0.00,VWS V14.01,2013-07-22 15:14:00,
2013-07-22 09:19:00,60.3,43.6,29.86,NNW,336,0.0,0.0,54,0.00,,---,0.00,VWS V14.01,2013-07-22 15:19:00,
2013-07-22 09:24:00,61.2,42.4,29.86,NNW,336,0.0,0.0,50,0.00,,---,0.00,VWS V14.01,2013-07-22 15:24:00,
2013-07-22 09:29:00,61.3,42.0,29.86,NNW,336,0.0,1.0,49,0.00,,---,0.00,VWS V14.01,2013-07-22 15:29:00,
2013-07-22 09:34:00,61.4,43.6,29.86,NNW,336,0.0,0.0,52,0.00,,---,0.00,VWS V14.01,2013-07-22 15:34:00,
2013-07-22 09:39:00,62.0,44.2,29.86,NNW,336,2.0,2.0,52,0.00,,---,0.00,VWS V14.01,2013-07-22 15:39:00,
2013-07-22 09:44:00,62.7,46.8,29.85,NNW,336,0.0,0.0,56,0.00,,---,0.00,VWS V14.01,2013-07-22 15:44:00,
2013-07-22 09:49:00,62.8,46.4,29.85,NNW,336,0.0,1.0,55,0.00,,---,0.00,VWS V14.01,2013-07-22 15:49:00,
2013-07-22 09:54:00,63.1,43.7,29.85,NNW,336,0.0,0.0,49,0.00,,---,0.00,VWS V14.01,2013-07-22 15:54:00,
2013-07-22 09:59:00,63.7,44.7,29.85,NNW,336,0.0,0.0,50,0.00,,---,0.00,VWS V14.01,2013-07-22 15:59:00,
2013-07-22 10:04:00,64.2,46.7,29.85,NNW,336,2.0,3.0,53,0.00,,---,0.00,VWS V14.01,2013-07-22 16:04:00,
2013-07-22 10:09:00,64.7,47.2,29.84,NNW,336,0.0,0.0,53,0.00,,---,0.00,VWS V14.01,2013-07-22 16:09:00,
2013-07-22 10:14:00,65.5,45.8,29.84,NNW,336,1.0,1.0,49,0.00,,---,0.00,VWS V14.01,2013-07-22 16:14:00,
2013-07-22 10:19:00,66.2,46.0,29.83,NNW,336,3.0,3.0,48,0.00,,---,0.00,VWS V14.01,2013-07-22 16:19:00,
2013-07-22 10:24:00,66.7,45.8,29.83,NNW,336,0.0,0.0,47,0.00,,---,0.00,VWS V14.01,2013-07-22 16:24:00,
2013-07-22 10:29:00,67.5,48.2,29.83,NNW,336,0.0,1.0,50,0.00,,---,0.00,VWS V14.01,2013-07-22 16:29:00,
2013-07-22 10:34:00,68.1,49.3,29.83,NNW,336,2.0,2.0,51,0.00,,---,0.00,VWS V14.01,2013-07-22 16:34:00,
2013-07-22 10:40:00,68.7,47.1,29.82,NNW,336,0.0,1.0,46,0.00,,---,0.00,VWS V14.01,2013-07-22 16:40:00,
2013-07-22 10:45:00,69.4,46.6,29.82,NNW,336,4.0,5.0,44,0.00,,---,0.00,VWS V14.01,2013-07-22 16:45:00,
2013-07-22 10:50:00,69.4,44.7,29.82,NNW,336,4.0,4.0,41,0.00,,---,0.00,VWS V14.01,2013-07-22 16:50:00,
2013-07-22 10:55:00,69.9,45.2,29.82,NNE,24,6.0,6.0,41,0.00,,---,0.00,VWS V14.01,2013-07-22 16:55:00,
2013-07-22 11:00:00,70.2,42.0,29.82,ESE,108,5.0,5.0,36,0.00,,---,0.00,VWS V14.01,2013-07-22 17:00:00,
2013-07-22 11:05:00,70.8,44.6,29.82,ESE,109,1.0,1.0,39,0.00,,---,0.00,VWS V14.01,2013-07-22 17:05:00,
2013-07-22 11:10:00,71.9,40.5,29.82,SE,125,3.0,4.0,32,0.00,,---,0.00,VWS V14.01,2013-07-22 17:10:00,
2013-07-22 11:15:00,72.0,41.3,29.82,SE,130,1.0,2.0,33,0.00,,---,0.00,VWS V14.01,2013-07-22 17:15:00,
2013-07-22 11:20:00,72.6,41.1,29.82,SE,130,4.0,4.0,32,0.00,,---,0.00,VWS V14.01,2013-07-22 17:20:00,
2013-07-22 11:25:00,72.7,37.8,29.81,SE,140,1.0,5.0,28,0.00,,---,0.00,VWS V14.01,2013-07-22 17:25:00,
2013-07-22 11:30:00,73.2,42.4,29.81,SSE,157,2.0,4.0,33,0.00,,---,0.00,VWS V14.01,2013-07-22 17:30:00,
2013-07-22 11:35:00,73.3,39.2,29.81,SSE,157,2.0,3.0,29,0.00,,---,0.00,VWS V14.01,2013-07-22 17:35:00,
2013-07-22 11:40:00,73.6,38.5,29.81,SSE,157,0.0,4.0,28,0.00,,---,0.00,VWS V14.01,2013-07-22 17:40:00,
2013-07-22 11:45:00,73.7,37.7,29.81,SSE,167,0.0,1.0,27,0.00,,---,0.00,VWS V14.01,2013-07-22 17:45:00,
2013-07-22 11:50:00,73.9,37.8,29.81,SSE,167,0.0,0.0,27,0.00,,---,0.00,VWS V14.01,2013-07-22 17:50:00,
2013-07-22 11:55:00,74.2,41.7,29.81,SSE,162,5.0,5.0,31,0.00,,---,0.00,VWS V14.01,2013-07-22 17:55:00,
2013-07-22 12:00:00,74.2,39.9,29.81,SE,142,0.0,0.0,29,0.00,,---,0.00,VWS V14.01,2013-07-22 18:00:00,
2013-07-22 12:05:00,75.4,39.1,29.81,SSW,212,4.0,4.0,27,0.00,,---,0.00,VWS V14.01,2013-07-22 18:05:00,
2013-07-22 12:11:00,76.0,40.6,29.81,WSW,246,6.0,7.0,28,0.00,,---,0.00,VWS V14.01,2013-07-22 18:11:00,
2013-07-22 12:16:00,75.9,40.5,29.80,West,264,0.0,1.0,28,0.00,,---,0.00,VWS V14.01,2013-07-22 18:16:00,
2013-07-22 12:21:00,75.3,40.0,29.80,SW,219,9.0,9.0,28,0.00,,---,0.00,VWS V14.01,2013-07-22 18:21:00,
2013-07-22 12:26:00,76.4,35.9,29.80,SW,227,9.0,9.0,23,0.00,,---,0.00,VWS V14.01,2013-07-22 18:26:00,
2013-07-22 12:32:00,76.7,31.4,29.80,West,270,5.0,8.0,19,0.00,,---,0.00,VWS V14.01,2013-07-22 18:32:00,
2013-07-22 12:38:00,77.8,32.3,29.80,West,263,0.0,5.0,19,0.00,,---,0.00,VWS V14.01,2013-07-22 18:38:00,
2013-07-22 12:43:00,77.8,32.3,29.80,SSW,211,8.0,13.0,19,0.00,,---,0.00,VWS V14.01,2013-07-22 18:43:00,
2013-07-22 12:48:00,77.6,30.8,29.80,West,267,12.0,12.0,18,0.00,,---,0.00,VWS V14.01,2013-07-22 18:48:00,
2013-07-22 12:53:00,78.2,33.9,29.80,West,263,19.0,19.0,20,0.00,,---,0.00,VWS V14.01,2013-07-22 18:53:00,
2013-07-22 12:58:00,78.4,31.4,29.80,SW,222,10.0,17.0,18,0.00,,---,0.00,VWS V14.01,2013-07-22 18:58:00,
2013-07-22 13:03:00,78.1,32.5,29.81,West,273,12.0,16.0,19,0.00,,---,0.00,VWS V14.01,2013-07-22 19:03:00,
2013-07-22 13:08:00,77.6,30.8,29.80,WSW,246,4.0,6.0,18,0.00,,---,0.00,VWS V14.01,2013-07-22 19:08:00,
2013-07-22 13:14:00,78.6,35.4,29.81,WSW,248,9.0,11.0,21,0.00,,---,0.00,VWS V14.01,2013-07-22 19:14:00,
2013-07-22 13:19:00,78.7,30.3,29.81,WNW,290,9.0,17.0,17,0.00,,---,0.00,VWS V14.01,2013-07-22 19:19:00,
2013-07-22 13:24:00,78.2,36.3,29.80,WNW,303,5.0,7.0,22,0.00,,---,0.00,VWS V14.01,2013-07-22 19:24:00,
2013-07-22 13:29:00,78.8,35.6,29.81,West,273,9.0,11.0,21,0.00,,---,0.00,VWS V14.01,2013-07-22 19:29:00,
2013-07-22 13:34:00,78.7,34.3,29.80,WNW,294,14.0,14.0,20,0.00,,---,0.00,VWS V14.01,2013-07-22 19:34:00,
2013-07-22 13:39:00,78.4,32.8,29.80,NW,315,10.0,12.0,19,0.00,,---,0.00,VWS V14.01,2013-07-22 19:39:00,
2013-07-22 13:44:00,77.6,36.9,29.80,NW,304,14.0,19.0,23,0.00,,---,0.00,VWS V14.01,2013-07-22 19:44:00,
2013-07-22 13:49:00,77.8,38.2,29.80,West,279,9.0,12.0,24,0.00,,---,0.00,VWS V14.01,2013-07-22 19:49:00,
2013-07-22 13:54:00,79.0,35.8,29.80,West,279,13.0,13.0,21,0.00,,---,0.00,VWS V14.01,2013-07-22 19:54:00,
2013-07-22 13:59:00,78.4,34.0,29.80,WNW,296,14.0,15.0,20,0.00,,---,0.00,VWS V14.01,2013-07-22 19:59:00,
2013-07-22 14:04:00,78.6,35.4,29.80,West,275,11.0,15.0,21,0.00,,---,0.00,VWS V14.01,2013-07-22 20:04:00,
2013-07-22 14:10:00,78.5,34.1,29.79,NW,312,6.0,6.0,20,0.00,,---,0.00,VWS V14.01,2013-07-22 20:10:00,
2013-07-22 14:15:00,77.1,35.4,29.79,West,279,8.0,12.0,22,0.00,,---,0.00,VWS V14.01,2013-07-22 20:15:00,
2013-07-22 14:16:00,76.9,35.2,29.79,WNW,284,13.0,15.0,22,0.00,,---,0.00,VWS V14.01,2013-07-22 20:16:00,
2013-07-22 14:17:00,76.9,35.2,29.79,WNW,294,12.0,15.0,22,0.00,,---,0.00,VWS V14.01,2013-07-22 20:17:00,
2013-07-22 14:22:00,77.1,35.4,29.79,West,260,11.0,18.0,22,0.00,,---,0.00,VWS V14.01,2013-07-22 20:22:00,
2013-07-22 14:27:00,78.2,35.1,29.79,WSW,254,5.0,5.0,21,0.00,,---,0.00,VWS V14.01,2013-07-22 20:27:00,
2013-07-22 14:32:00,78.8,35.6,29.78,WNW,287,9.0,15.0,21,0.00,,---,0.00,VWS V14.01,2013-07-22 20:32:00,
2013-07-22 14:37:00,78.9,35.7,29.79,WNW,296,7.0,13.0,21,0.00,,---,0.00,VWS V14.01,2013-07-22 20:37:00,
2013-07-22 14:42:00,78.3,35.2,29.78,SW,223,5.0,7.0,21,0.00,,---,0.00,VWS V14.01,2013-07-22 20:42:00,
2013-07-22 14:43:00,78.6,35.4,29.78,SW,225,4.0,5.0,21,0.00,,---,0.00,VWS V14.01,2013-07-22 20:43:00,
2013-07-22 14:48:00,79.8,32.6,29.78,WSW,247,8.0,8.0,18,0.00,,---,0.00,VWS V14.01,2013-07-22 20:48:00,
2013-07-22 14:53:00,79.7,32.5,29.78,West,259,12.0,15.0,18,0.00,,---,0.00,VWS V14.01,2013-07-22 20:53:00,
2013-07-22 14:58:00,79.4,32.2,29.78,WSW,252,7.0,8.0,18,0.00,,---,0.00,VWS V14.01,2013-07-22 20:58:00,
2013-07-22 15:03:00,78.9,31.8,29.78,WSW,249,3.0,8.0,18,0.00,,---,0.00,VWS V14.01,2013-07-22 21:03:00,
2013-07-22 15:08:00,79.1,38.2,29.77,West,275,7.0,7.0,23,0.00,,---,0.00,VWS V14.01,2013-07-22 21:08:00,
2013-07-22 15:13:00,79.7,31.1,29.77,WSW,250,10.0,13.0,17,0.00,,---,0.00,VWS V14.01,2013-07-22 21:13:00,
2013-07-22 15:18:00,80.3,30.1,29.77,NW,307,7.0,11.0,16,0.00,,---,0.00,VWS V14.01,2013-07-22 21:18:00,
2013-07-22 15:23:00,79.8,29.7,29.77,WSW,245,5.0,8.0,16,0.00,,---,0.00,VWS V14.01,2013-07-22 21:23:00,
2013-07-22 15:28:00,80.4,31.6,29.77,WSW,246,9.0,10.0,17,0.00,,---,0.00,VWS V14.01,2013-07-22 21:28:00,
2013-07-22 15:33:00,79.8,33.9,29.76,WSW,254,7.0,7.0,19,0.00,,---,0.00,VWS V14.01,2013-07-22 21:33:00,
2013-07-22 15:38:00,79.9,29.7,29.76,SW,216,1.0,7.0,16,0.00,,---,0.00,VWS V14.01,2013-07-22 21:38:00,
2013-07-22 15:43:00,79.9,34.0,29.76,WNW,284,11.0,12.0,19,0.00,,---,0.00,VWS V14.01,2013-07-22 21:43:00,
2013-07-22 15:48:00,80.2,32.9,29.76,West,265,2.0,12.0,18,0.00,,---,0.00,VWS V14.01,2013-07-22 21:48:00,
2013-07-22 15:53:00,80.0,34.1,29.76,WSW,253,5.0,10.0,19,0.00,,---,0.00,VWS V14.01,2013-07-22 21:53:00,
2013-07-22 15:58:00,80.8,30.5,29.75,SW,236,5.0,9.0,16,0.00,,---,0.00,VWS V14.01,2013-07-22 21:58:00,
2013-07-22 16:03:00,80.6,35.9,29.76,West,259,10.0,10.0,20,0.00,,---,0.00,VWS V14.01,2013-07-22 22:03:00,
2013-07-22 16:08:00,80.7,35.9,29.75,WSW,244,15.0,15.0,20,0.00,,---,0.00,VWS V14.01,2013-07-22 22:08:00,
2013-07-22 16:13:00,80.7,35.9,29.75,WSW,246,10.0,10.0,20,0.00,,---,0.00,VWS V14.01,2013-07-22 22:13:00,
2013-07-22 16:18:00,80.8,34.7,29.75,SW,234,9.0,10.0,19,0.00,,---,0.00,VWS V14.01,2013-07-22 22:18:00,
2013-07-22 16:23:00,81.5,35.3,29.75,West,275,12.0,15.0,19,0.00,,---,0.00,VWS V14.01,2013-07-22 22:23:00,
2013-07-22 16:28:00,81.2,35.1,29.75,West,261,13.0,13.0,19,0.00,,---,0.00,VWS V14.01,2013-07-22 22:28:00,
2013-07-22 16:33:00,80.4,33.1,29.75,WNW,289,8.0,11.0,18,0.00,,---,0.00,VWS V14.01,2013-07-22 22:33:00,
2013-07-22 16:38:00,79.8,33.9,29.75,West,281,10.0,11.0,19,0.00,,---,0.00,VWS V14.01,2013-07-22 22:38:00,
2013-07-22 16:43:00,79.6,33.8,29.75,NW,322,4.0,9.0,19,0.00,,---,0.00,VWS V14.01,2013-07-22 22:43:00,
2013-07-22 16:48:00,78.5,32.8,29.75,NNW,339,10.0,11.0,19,0.00,,---,0.00,VWS V14.01,2013-07-22 22:48:00,
2013-07-22 16:53:00,77.2,33.1,29.75,NNW,339,12.0,12.0,20,0.00,,---,0.00,VWS V14.01,2013-07-22 22:53:00,
2013-07-22 16:58:00,76.5,34.9,29.75,NW,323,6.0,9.0,22,0.00,,---,0.00,VWS V14.01,2013-07-22 22:58:00,
2013-07-22 17:03:00,76.0,35.6,29.75,NW,323,9.0,10.0,23,0.00,,---,0.00,VWS V14.01,2013-07-22 23:03:00,
2013-07-22 17:08:00,76.0,34.5,29.74,NW,313,4.0,5.0,22,0.00,,---,0.00,VWS V14.01,2013-07-22 23:08:00,
2013-07-22 17:13:00,75.8,33.1,29.75,NW,319,6.0,7.0,21,0.00,,---,0.00,VWS V14.01,2013-07-22 23:13:00,
2013-07-22 17:18:00,75.2,33.8,29.75,NW,323,7.0,7.0,22,0.00,,---,0.00,VWS V14.01,2013-07-22 23:18:00,
2013-07-22 17:23:00,74.7,34.5,29.75,NNW,331,7.0,7.0,23,0.00,,---,0.00,VWS V14.01,2013-07-22 23:23:00,
2013-07-22 17:28:00,74.8,32.3,29.75,NNW,328,7.0,10.0,21,0.00,,---,0.00,VWS V14.01,2013-07-22 23:28:00,
2013-07-22 17:33:00,75.1,33.7,29.75,NNW,327,3.0,4.0,22,0.00,,---,0.00,VWS V14.01,2013-07-22 23:33:00,
2013-07-22 17:38:00,75.1,35.9,29.75,NW,305,3.0,3.0,24,0.00,,---,0.00,VWS V14.01,2013-07-22 23:38:00,
2013-07-22 17:43:00,75.3,35.0,29.75,NW,305,2.0,3.0,23,0.00,,---,0.00,VWS V14.01,2013-07-22 23:43:00,
2013-07-22 17:48:00,76.0,39.6,29.75,NW,304,2.0,2.0,27,0.00,,---,0.00,VWS V14.01,2013-07-22 23:48:00,
2013-07-22 17:53:00,76.8,37.3,29.74,NW,304,4.0,5.0,24,0.00,,---,0.00,VWS V14.01,2013-07-22 23:53:00,
2013-07-22 17:58:00,77.6,29.4,29.74,WNW,298,6.0,7.0,17,0.00,,---,0.00,VWS V14.01,2013-07-22 23:58:00,
2013-07-22 18:03:00,77.8,34.8,29.74,NNW,342,9.0,9.0,21,0.00,,---,0.00,VWS V14.01,2013-07-23 00:03:00,
2013-07-22 18:08:00,77.2,30.5,29.74,North,360,7.0,7.0,18,0.00,,---,0.00,VWS V14.01,2013-07-23 00:08:00,
2013-07-22 18:13:00,76.9,28.8,29.74,NW,325,9.0,9.0,17,0.00,,---,0.00,VWS V14.01,2013-07-23 00:13:00,
2013-07-22 18:18:00,77.3,29.1,29.74,NW,325,0.0,4.0,17,0.00,,---,0.00,VWS V14.01,2013-07-23 00:18:00,
2013-07-22 18:23:00,77.6,29.4,29.74,NNW,333,7.0,8.0,17,0.00,,---,0.00,VWS V14.01,2013-07-23 00:23:00,
2013-07-22 18:28:00,77.4,29.2,29.74,NW,304,9.0,9.0,17,0.00,,---,0.00,VWS V14.01,2013-07-23 00:28:00,
2013-07-22 18:33:00,77.5,29.3,29.74,NW,317,9.0,9.0,17,0.00,,---,0.00,VWS V14.01,2013-07-23 00:33:00,
2013-07-22 18:38:00,77.4,27.7,29.74,NW,325,8.0,8.0,16,0.00,,---,0.00,VWS V14.01,2013-07-23 00:38:00,
2013-07-22 18:43:00,76.9,27.3,29.74,NW,312,9.0,9.0,16,0.00,,---,0.00,VWS V14.01,2013-07-23 00:43:00,
2013-07-22 18:48:00,76.7,27.2,29.74,NW,326,6.0,7.0,16,0.00,,---,0.00,VWS V14.01,2013-07-23 00:48:00,
2013-07-22 18:53:00,76.5,31.2,29.74,NW,326,3.0,3.0,19,0.00,,---,0.00,VWS V14.01,2013-07-23 00:53:00,
2013-07-22 18:58:00,76.4,28.4,29.74,NNW,328,7.0,9.0,17,0.00,,---,0.00,VWS V14.01,2013-07-23 00:58:00,
2013-07-22 19:03:00,76.0,29.5,29.74,NNW,328,4.0,4.0,18,0.00,,---,0.00,VWS V14.01,2013-07-23 01:03:00,
2013-07-22 19:08:00,75.8,30.6,29.74,NNW,328,5.0,5.0,19,0.00,,---,0.00,VWS V14.01,2013-07-23 01:08:00,
2013-07-22 19:13:00,75.8,26.5,29.75,NW,324,5.0,7.0,16,0.00,,---,0.00,VWS V14.01,2013-07-23 01:13:00,
2013-07-22 19:19:00,75.7,27.8,29.75,NW,309,5.0,6.0,17,0.00,,---,0.00,VWS V14.01,2013-07-23 01:19:00,
2013-07-22 19:24:00,75.5,26.2,29.75,NW,306,8.0,8.0,16,0.00,,---,0.00,VWS V14.01,2013-07-23 01:24:00,
2013-07-22 19:29:00,75.3,26.0,29.75,NW,314,5.0,7.0,16,0.00,,---,0.00,VWS V14.01,2013-07-23 01:29:00,
2013-07-22 19:34:00,74.9,24.2,29.75,WNW,297,7.0,8.0,15,0.00,,---,0.00,VWS V14.01,2013-07-23 01:34:00,
2013-07-22 19:39:00,74.6,25.5,29.75,WNW,299,4.0,6.0,16,0.00,,---,0.00,VWS V14.01,2013-07-23 01:39:00,
2013-07-22 19:44:00,74.2,25.2,29.75,WNW,300,6.0,8.0,16,0.00,,---,0.00,VWS V14.01,2013-07-23 01:44:00,
2013-07-22 19:49:00,73.8,26.3,29.76,WNW,293,6.0,7.0,17,0.00,,---,0.00,VWS V14.01,2013-07-23 01:49:00,
2013-07-22 19:54:00,73.4,26.0,29.76,WNW,295,5.0,7.0,17,0.00,,---,0.00,VWS V14.01,2013-07-23 01:54:00,
2013-07-22 19:59:00,73.0,32.0,29.76,WNW,295,4.0,5.0,22,0.00,,---,0.00,VWS V14.01,2013-07-23 01:59:00,
2013-07-22 20:04:00,70.6,35.0,29.76,WNW,296,7.0,7.0,27,0.00,,---,0.00,VWS V14.01,2013-07-23 02:04:00,
2013-07-22 20:09:00,67.0,32.8,29.76,WNW,296,8.0,9.0,28,0.00,,---,0.00,VWS V14.01,2013-07-23 02:09:00,
2013-07-22 20:14:00,64.6,34.1,29.76,WNW,296,7.0,7.0,32,0.00,,---,0.00,VWS V14.01,2013-07-23 02:14:00,
2013-07-22 20:19:00,62.8,35.5,29.76,WNW,298,9.0,10.0,36,0.00,,---,0.00,VWS V14.01,2013-07-23 02:19:00,
2013-07-22 20:24:00,62.0,33.3,29.76,NNW,341,10.0,10.0,34,0.00,,---,0.00,VWS V14.01,2013-07-23 02:24:00,
2013-07-22 20:29:00,61.8,33.2,29.77,NNW,336,8.0,9.0,34,0.00,,---,0.00,VWS V14.01,2013-07-23 02:29:00,
2013-07-22 20:34:00,61.3,33.4,29.77,NNW,342,10.0,10.0,35,0.00,,---,0.00,VWS V14.01,2013-07-23 02:34:00,
2013-07-22 20:39:00,60.8,33.7,29.77,NNW,338,9.0,10.0,36,0.00,,---,0.00,VWS V14.01,2013-07-23 02:39:00,
2013-07-22 20:44:00,60.7,33.6,29.77,NNW,336,8.0,9.0,36,0.00,,---,0.00,VWS V14.01,2013-07-23 02:44:00,
2013-07-22 20:49:00,60.4,34.0,29.78,NNW,336,3.0,4.0,37,0.00,,---,0.00,VWS V14.01,2013-07-23 02:49:00,
2013-07-22 20:54:00,60.2,33.2,29.78,NNW,336,0.0,0.0,36,0.00,,---,0.00,VWS V14.01,2013-07-23 02:54:00,
2013-07-22 20:59:00,60.3,32.6,29.78,NNW,336,0.0,0.0,35,0.00,,---,0.00,VWS V14.01,2013-07-23 02:59:00,
2013-07-22 21:04:00,60.2,32.5,29.78,NNW,336,0.0,2.0,35,0.00,,---,0.00,VWS V14.01,2013-07-23 03:04:00,
2013-07-22 21:09:00,60.0,33.7,29.79,NNW,336,3.0,5.0,37,0.00,,---,0.00,VWS V14.01,2013-07-23 03:09:00,
2013-07-22 21:14:00,59.5,32.5,29.79,NNW,335,3.0,4.0,36,0.00,,---,0.00,VWS V14.01,2013-07-23 03:14:00,
2013-07-22 21:19:00,59.5,31.9,29.79,NNW,335,3.0,4.0,35,0.00,,---,0.00,VWS V14.01,2013-07-23 03:19:00,
2013-07-22 21:24:00,59.4,33.1,29.80,NNW,335,5.0,6.0,37,0.00,,---,0.00,VWS V14.01,2013-07-23 03:24:00,
2013-07-22 21:29:00,58.8,31.2,29.80,NNW,335,3.0,5.0,35,0.00,,---,0.00,VWS V14.01,2013-07-23 03:29:00,
2013-07-22 21:34:00,58.9,30.6,29.80,NNW,334,6.0,6.0,34,0.00,,---,0.00,VWS V14.01,2013-07-23 03:34:00,
2013-07-22 21:39:00,59.4,31.8,29.81,NNW,330,0.0,0.0,35,0.00,,---,0.00,VWS V14.01,2013-07-23 03:39:00,
2013-07-22 21:44:00,59.6,31.2,29.81,NNW,330,0.0,0.0,34,0.00,,---,0.00,VWS V14.01,2013-07-23 03:44:00,
2013-07-22 21:49:00,59.1,32.9,29.81,NNW,331,4.0,4.0,37,0.00,,---,0.00,VWS V14.01,2013-07-23 03:49:00,
2013-07-22 21:54:00,57.9,31.1,29.81,NNW,331,4.0,4.0,36,0.00,,---,0.00,VWS V14.01,2013-07-23 03:54:00,
2013-07-22 21:59:00,57.4,32.0,29.81,NNW,331,0.0,0.0,38,0.00,,---,0.00,VWS V14.01,2013-07-23 03:59:00,
2013-07-22 22:01:00,57.2,31.8,29.81,NNW,331,0.0,0.0,38,0.00,,---,0.00,VWS V14.01,2013-07-23 04:01:00,
2013-07-22 22:06:00,56.9,30.9,29.81,NNW,331,2.0,2.0,37,0.00,,---,0.00,VWS V14.01,2013-07-23 04:06:00,
2013-07-22 22:11:00,56.9,31.6,29.82,NNW,331,3.0,4.0,38,0.00,,---,0.00,VWS V14.01,2013-07-23 04:11:00,
2013-07-22 22:16:00,56.6,32.0,29.82,NNW,331,0.0,0.0,39,0.00,,---,0.00,VWS V14.01,2013-07-23 04:16:00,
2013-07-22 22:21:00,56.5,29.9,29.82,NNW,331,3.0,3.0,36,0.00,,---,0.00,VWS V14.01,2013-07-23 04:21:00,
2013-07-22 22:26:00,56.6,32.0,29.82,NNW,336,7.0,8.0,39,0.00,,---,0.00,VWS V14.01,2013-07-23 04:26:00,
2013-07-22 22:31:00,55.9,32.0,29.82,NNW,337,3.0,3.0,40,0.00,,---,0.00,VWS V14.01,2013-07-23 04:31:00,
2013-07-22 22:36:00,55.5,31.0,29.82,NNW,337,0.0,0.0,39,0.00,,---,0.00,VWS V14.01,2013-07-23 04:36:00,
2013-07-22 22:41:00,55.4,32.1,29.83,NNW,337,3.0,4.0,41,0.00,,---,0.00,VWS V14.01,2013-07-23 04:41:00,
2013-07-22 22:46:00,55.3,30.1,29.83,NNW,337,2.0,3.0,38,0.00,,---,0.00,VWS V14.01,2013-07-23 04:46:00,
2013-07-22 22:51:00,55.3,31.4,29.83,NNW,337,3.0,4.0,40,0.00,,---,0.00,VWS V14.01,2013-07-23 04:51:00,
2013-07-22 22:56:00,55.0,32.9,29.83,NNW,336,1.0,2.0,43,0.00,,---,0.00,VWS V14.01,2013-07-23 04:56:00,
2013-07-22 23:01:00,54.2,33.3,29.84,NNW,336,4.0,4.0,45,0.00,,---,0.00,VWS V14.01,2013-07-23 05:01:00,
2013-07-22 23:06:00,53.2,32.4,29.84,NNW,336,5.0,5.0,45,0.00,,---,0.00,VWS V14.01,2013-07-23 05:06:00,
2013-07-22 23:11:00,52.6,33.0,29.84,NNW,336,4.0,5.0,47,0.00,,---,0.00,VWS V14.01,2013-07-23 05:11:00,
2013-07-22 23:16:00,51.9,33.4,29.84,NNW,336,5.0,5.0,49,0.00,,---,0.00,VWS V14.01,2013-07-23 05:16:00,
2013-07-22 23:21:00,51.4,33.4,29.84,NNW,337,7.0,7.0,50,0.00,,---,0.00,VWS V14.01,2013-07-23 05:21:00,
2013-07-22 23:26:00,50.9,33.4,29.84,NNW,337,7.0,7.0,51,0.00,,---,0.00,VWS V14.01,2013-07-23 05:26:00,
2013-07-22 23:31:00,50.5,33.5,29.84,NNW,336,6.0,6.0,52,0.00,,---,0.00,VWS V14.01,2013-07-23 05:31:00,
2013-07-22 23:36:00,50.5,33.1,29.85,NNW,336,0.0,0.0,51,0.00,,---,0.00,VWS V14.01,2013-07-23 05:36:00,
2013-07-22 23:41:00,50.5,33.5,29.85,NNW,336,4.0,4.0,52,0.00,,---,0.00,VWS V14.01,2013-07-23 05:41:00,
2013-07-22 23:46:00,50.3,33.4,29.85,NNW,336,4.0,4.0,52,0.00,,---,0.00,VWS V14.01,2013-07-23 05:46:00,
2013-07-22 23:51:00,49.8,32.9,29.85,NNW,336,1.0,2.0,52,0.00,,---,0.00,VWS V14.01,2013-07-23 05:51:00,
2013-07-22 23:57:00,49.5,33.1,29.85,NNW,336,1.0,1.0,53,0.00,,---,0.00,VWS V14.01,2013-07-23 05:57:00,